Delaware, OH

5:09 PM EDT on May 29, 2017 (GMT -0400)
Delaware Municipal

Weather History for KDLZ - April, 2014

Change the Weather History Date:

Tuesday, April 29, 2014

  Actual Average Record
Temperature  
Mean Temperature 63 °F -  
Max Temperature 73 °F 65 °F 82 °F (1941)
Min Temperature 53 °F 40 °F 26 °F (1977)
Degree Days  
Heating Degree Days 2    
Growing Degree Days 13 (Base 50)    
Moisture  
Dew Point 54 °F    
Average Humidity 77    
Maximum Humidity 100    
Minimum Humidity 41    
Precipitation  
Precipitation 1.24 in - - ()
Sea Level Pressure  
Sea Level Pressure 29.70 in    
Wind  
Wind Speed 12 mph (South)    
Max Wind Speed 44 mph    
Max Gust Speed 54 mph    
Visibility 9 miles    
Events Rain , Thunderstorm    
Averages and records for this station are not official NWS values.
T = Trace of Precipitation, MM = Missing Value Source: NWS Daily Summary

Daily Weather History Graph

Daily Weather History Graph

Search for Another Location

Airport or City:

Trip Planner

Search our weather history database for the weather conditions in past years. The results will help you decide how hot, cold, wet, or windy it might be!

Date:

Astronomy

Apr. 29, 2014 Rise Set
Actual Time 6:34 AM EDT 8:25 PM EDT
Civil Twilight 6:05 AM EDT 8:55 PM EDT
Nautical Twilight 5:29 AM EDT 9:30 PM EDT
Astronomical Twilight 4:51 AM EDT 10:09 PM EDT
Moon 6:51 AM EDT 9:04 PM EDT
Length of Visible Light 14h 49m
Length of Day
13h 51m
New Moon, 0% of the Moon is Illuminated
Apr 29
New Moon
May 6
First Quarter
May 14
Full
May 21
Last Quarter
May 28
New

Hourly Weather History & Observations

Time (EDT) Temp. Dew Point Humidity Pressure Visibility Wind Dir Wind Speed Gust Speed Precip Events Conditions
12:17 AM 53.6 °F 53.6 °F 100% 29.73 in 4.0 mi ESE 8.1 mph - 0.01 in Rain Rain
12:38 AM 55.4 °F 53.6 °F 94% 29.72 in 3.0 mi ESE 9.2 mph - 0.04 in Rain Light Rain
12:58 AM 55.4 °F 55.4 °F 100% 29.72 in 4.0 mi SE 11.5 mph - 0.06 in Rain Light Rain
1:17 AM 57.2 °F 55.4 °F 94% 29.71 in 7.0 mi SSE 10.4 mph - N/A   Overcast
1:38 AM 59.0 °F 57.2 °F 94% 29.70 in 7.0 mi SSE 11.5 mph - 0.01 in   Drizzle
1:58 AM 59.0 °F 55.4 °F 88% 29.68 in 7.0 mi SE 10.4 mph - 0.01 in Rain Light Rain
2:17 AM 59.0 °F 55.4 °F 88% 29.66 in 7.0 mi SE 11.5 mph 18.4 mph 0.01 in   Light Drizzle
2:38 AM 59.0 °F 55.4 °F 88% 29.66 in 10.0 mi SSE 10.4 mph - 0.01 in   Overcast
2:58 AM 59.0 °F 55.4 °F 88% 29.66 in 10.0 mi SE 11.5 mph - 0.01 in   Overcast
3:17 AM 59.0 °F 55.4 °F 88% 29.66 in 10.0 mi SE 12.7 mph - N/A   Drizzle
3:38 AM 59.0 °F 55.4 °F 88% 29.65 in 7.0 mi SE 12.7 mph 16.1 mph 0.01 in Rain Rain
3:58 AM 59.0 °F 55.4 °F 88% 29.64 in 7.0 mi ESE 12.7 mph - 0.05 in Rain Rain
4:17 AM 59.0 °F 55.4 °F 88% 29.63 in 7.0 mi SE 11.5 mph - 0.03 in Rain Rain
4:38 AM 59.0 °F 57.2 °F 94% 29.62 in 7.0 mi SE 13.8 mph 20.7 mph 0.07 in Rain Rain
4:58 AM 59.0 °F 57.2 °F 94% 29.62 in 7.0 mi SE 16.1 mph 19.6 mph 0.10 in Rain Light Rain
5:17 AM 59.0 °F 57.2 °F 94% 29.60 in 5.0 mi ESE 13.8 mph 25.3 mph 0.06 in Rain Rain
5:38 AM 59.0 °F 55.4 °F 88% 29.58 in 5.0 mi ESE 10.4 mph - 0.10 in Rain Light Rain
5:58 AM 59.0 °F 55.4 °F 88% 29.57 in 2.5 mi ESE 13.8 mph - 0.30 in Rain Heavy Rain
6:17 AM 59.0 °F 55.4 °F 88% 29.57 in 2.5 mi ESE 13.8 mph - 0.31 in Rain Rain
6:38 AM 59.0 °F 57.2 °F 94% 29.57 in 10.0 mi ESE 11.5 mph 17.3 mph 0.32 in Rain Light Rain
6:58 AM 60.8 °F 57.2 °F 88% 29.57 in 10.0 mi SSE 12.7 mph 21.9 mph 0.32 in Rain Light Rain
7:17 AM 60.8 °F 57.2 °F 88% 29.59 in 10.0 mi South 11.5 mph 16.1 mph N/A   Drizzle
7:38 AM 60.8 °F 57.2 °F 88% 29.59 in 10.0 mi South 15.0 mph 20.7 mph N/A   Drizzle
7:58 AM 60.8 °F 57.2 °F 88% 29.59 in 10.0 mi South 12.7 mph - 0.01 in Rain Light Rain
8:17 AM 60.8 °F 59.0 °F 94% 29.59 in 10.0 mi South 12.7 mph 16.1 mph N/A Rain Light Rain
8:38 AM 60.8 °F 59.0 °F 94% 29.60 in 10.0 mi South 11.5 mph - N/A   Light Drizzle
8:58 AM 60.8 °F 59.0 °F 94% 29.61 in 10.0 mi South 11.5 mph 18.4 mph 0.01 in Rain Light Rain
9:17 AM 60.8 °F 59.0 °F 94% 29.61 in 7.0 mi South 13.8 mph 18.4 mph N/A Rain Light Rain
9:38 AM 60.8 °F 59.0 °F 94% 29.61 in 10.0 mi South 10.4 mph - 0.02 in Rain Rain
9:57 AM 60.8 °F 59.0 °F 94% 29.60 in 10.0 mi South 10.4 mph - 0.02 in   Overcast
10:17 AM 60.8 °F 59.0 °F 94% 29.62 in 10.0 mi SSW 11.5 mph - N/A   Overcast
10:38 AM 60.8 °F 59.0 °F 94% 29.63 in 10.0 mi SSW 11.5 mph 17.3 mph N/A   Overcast
10:57 AM 62.6 °F 60.8 °F 94% 29.64 in 10.0 mi SSW 12.7 mph - N/A   Overcast
11:18 AM 64.4 °F 59.0 °F 83% 29.65 in 10.0 mi South 15.0 mph 18.4 mph N/A   Overcast
11:38 AM 64.4 °F 59.0 °F 83% 29.65 in 10.0 mi SSW 15.0 mph 24.2 mph N/A   Overcast
11:57 AM 64.4 °F 57.2 °F 77% 29.67 in 10.0 mi SSW 17.3 mph 26.5 mph N/A   Mostly Cloudy
12:18 PM 66.2 °F 55.4 °F 68% 29.67 in 10.0 mi SSW 12.7 mph - N/A   Mostly Cloudy
12:38 PM 66.2 °F 57.2 °F 73% 29.68 in 10.0 mi SSW 13.8 mph 20.7 mph N/A   Mostly Cloudy
12:57 PM 68.0 °F 55.4 °F 64% 29.69 in 10.0 mi SSW 13.8 mph 19.6 mph N/A   Mostly Cloudy
1:18 PM 68.0 °F 55.4 °F 64% 29.70 in 10.0 mi South 16.1 mph 24.2 mph N/A   Mostly Cloudy
1:38 PM 68.0 °F 53.6 °F 60% 29.70 in 10.0 mi SSW 19.6 mph 23.0 mph N/A   Scattered Clouds
1:57 PM 69.8 °F 55.4 °F 60% 29.71 in 10.0 mi South 17.3 mph - N/A   Scattered Clouds
2:18 PM 69.8 °F 53.6 °F 56% 29.72 in 10.0 mi SSW 15.0 mph 21.9 mph N/A   Scattered Clouds
2:38 PM 69.8 °F 51.8 °F 53% 29.72 in 10.0 mi South 13.8 mph 20.7 mph N/A   Scattered Clouds
2:57 PM 71.6 °F 51.8 °F 50% 29.72 in 10.0 mi South 12.7 mph 21.9 mph N/A   Scattered Clouds
3:18 PM 71.6 °F 51.8 °F 50% 29.72 in 10.0 mi SSW 13.8 mph - N/A   Scattered Clouds
3:38 PM 71.6 °F 50.0 °F 46% 29.72 in 10.0 mi SSW 12.7 mph 23.0 mph N/A   Scattered Clouds
3:57 PM 71.6 °F 51.8 °F 50% 29.73 in 10.0 mi South 12.7 mph 21.9 mph N/A   Scattered Clouds
4:18 PM 71.6 °F 50.0 °F 46% 29.73 in 10.0 mi South 13.8 mph - N/A   Clear
4:38 PM 71.6 °F 50.0 °F 46% 29.73 in 10.0 mi South 15.0 mph 18.4 mph N/A   Scattered Clouds
5:18 PM 71.6 °F 48.2 °F 43% 29.73 in 10.0 mi SSW 12.7 mph 19.6 mph N/A   Scattered Clouds
5:38 PM 73.4 °F 50.0 °F 44% 29.72 in 10.0 mi South 13.8 mph 17.3 mph N/A   Scattered Clouds
5:57 PM 71.6 °F 48.2 °F 43% 29.73 in 10.0 mi South 9.2 mph 17.3 mph N/A   Scattered Clouds
6:18 PM 71.6 °F 48.2 °F 43% 29.73 in 10.0 mi South 12.7 mph 17.3 mph N/A   Clear
6:38 PM 71.6 °F 46.4 °F 41% 29.72 in 10.0 mi SSE 16.1 mph - N/A   Clear
6:57 PM 71.6 °F 46.4 °F 41% 29.72 in 10.0 mi South 12.7 mph 18.4 mph N/A   Clear
7:18 PM 69.8 °F 46.4 °F 43% 29.73 in 10.0 mi South 6.9 mph - N/A   Clear
7:38 PM 69.8 °F 46.4 °F 43% 29.74 in 10.0 mi South 9.2 mph 17.3 mph N/A   Scattered Clouds
7:57 PM 69.8 °F 46.4 °F 43% 29.74 in 10.0 mi SSE 6.9 mph - N/A   Mostly Cloudy
8:18 PM 66.2 °F 50.0 °F 56% 29.84 in 10.0 mi SW 43.7 mph 54.1 mph N/A Rain , Thunderstorm Light Thunderstorms and Rain
8:38 PM 55.4 °F 51.8 °F 88% 29.85 in 5.0 mi West 12.7 mph 32.2 mph 0.18 in Rain , Thunderstorm Thunderstorms and Rain
8:57 PM 55.4 °F 51.8 °F 88% 29.76 in 10.0 mi WNW 13.8 mph 18.4 mph 0.20 in Rain Light Rain
9:18 PM 55.4 °F 51.8 °F 88% 29.80 in 10.0 mi West 10.4 mph - N/A   Clear
9:38 PM 55.4 °F 51.8 °F 88% 29.85 in 10.0 mi West 4.6 mph - N/A   Mostly Cloudy
9:57 PM 55.4 °F 50.0 °F 82% 29.86 in 10.0 mi NW 3.5 mph - N/A   Mostly Cloudy
10:18 PM 55.4 °F 50.0 °F 82% 29.90 in 10.0 mi West 3.5 mph - N/A   Mostly Cloudy
10:38 PM 55.4 °F 48.2 °F 77% 29.87 in 10.0 mi North 5.8 mph - N/A Rain Light Rain
10:57 PM 53.6 °F 48.2 °F 82% 29.89 in 10.0 mi NW 4.6 mph - 0.01 in Rain Rain
11:18 PM 53.6 °F 50.0 °F 88% 29.95 in 10.0 mi SW 9.2 mph - 0.02 in Rain Rain
11:37 PM 53.6 °F 50.0 °F 88% 29.94 in 4.0 mi SW 3.5 mph - 0.13 in Rain Light Rain
11:58 PM 53.6 °F 50.0 °F 88% 29.90 in 10.0 mi West 3.5 mph - 0.14 in Rain Rain